User: anonymous   Login
Location: ????????
(54.8751°N, 38.5756°E)
Time: 23:05:36
(UTC+00:00)
Language:

Sich 1 - Orbit

View from above orbital plane
View from above orbital plane
View from above satellite
View from above satellite

Ground track
Ground track

The orbit data is extracted from the following two-line orbital elements,

1 23657U 95046A   24168.93339946  .00002259  00000-0  23130-3 0  9994
2 23657  82.5265  15.7117 0018835 245.8796 114.0453 14.89971775557048
Epoch (UTC): 16 June 2024 22:24:05
Eccentricity: 0.0018835
inclination: 82.5265°
perigee height: 585 km
apogee height: 611 km
right ascension of ascending node: 15.7117°
argument of perigee: 245.8796°
revolutions per day: 14.89971775
mean anomaly at epoch: 114.0453°
orbit number at epoch: 55704

The dashed part of the orbit path shows where the satellite is in the earth's shadow,  

DLR